Manhattan, KS

2:41 AM CST on January 22, 2017 (GMT -0600)
Manhattan Regional

Weather History for KMHK - May, 2012

Change the Weather History Date:

Friday, May 4, 2012

  Actual Average Record
Temperature  
Mean Temperature 79 °F 60 °F  
Max Temperature 92 °F 72 °F 92 °F (2012)
Min Temperature 66 °F 47 °F 28 °F (2008)
Degree Days  
Heating Degree Days 0 6  
Month to date heating degree days 0 27  
Since 1 July heating degree days 4169 5208  
Cooling Degree Days 14 1  
Month to date cooling degree days 40 4  
Year to date cooling degree days 106 21  
Growing Degree Days 30 (Base 50)    
Moisture  
Dew Point 67 °F    
Average Humidity 68    
Maximum Humidity 97    
Minimum Humidity 38    
Precipitation  
Precipitation 0.00 in 0.14 in 4.22 in (2015)
Month to date precipitation 0.01 0.58  
Year to date precipitation 6.59 7.30  
Sea Level Pressure  
Sea Level Pressure 29.75 in    
Wind  
Wind Speed 7 mph (South)    
Max Wind Speed 18 mph    
Max Gust Speed 25 mph    
Visibility 9 miles    
Events      
T = Trace of Precipitation, MM = Missing Value Source: NWS Daily Summary

Daily Weather History Graph

Daily Weather History Graph

Search for Another Location

Airport or City:

Trip Planner

Search our weather history database for the weather conditions in past years. The results will help you decide how hot, cold, wet, or windy it might be!

Date:

Astronomy

May. 04, 2012 Rise Set
Actual Time 6:24 AM CDT 8:23 PM CDT
Civil Twilight 5:55 AM CDT 8:52 PM CDT
Nautical Twilight 5:19 AM CDT 9:28 PM CDT
Astronomical Twilight 4:41 AM CDT 10:06 PM CDT
Moon 7:02 PM CDT (5/4) 5:05 AM CDT (5/4)
Length of Visible Light 14h 57m
Length of Day
13h 58m
Waxing Gibbous, 97% of the Moon is Illuminated
May 4
Waxing Gibbous
May 5
Full
May 12
Last Quarter
May 20
New
May 28
First Quarter

Hourly Weather History & Observations

Time (CDT) Temp. Heat Index Dew Point Humidity Pressure Visibility Wind Dir Wind Speed Gust Speed Precip Events Conditions
12:52 AM 68.0 °F - 66.9 °F 96% 29.77 in 5.0 mi Calm Calm - N/A   Clear
1:52 AM 70.0 °F - 68.0 °F 93% 29.78 in 7.0 mi Calm Calm - N/A   Clear
2:52 AM 72.0 °F - 70.0 °F 93% 29.75 in 8.0 mi SSW 5.8 mph - N/A   Clear
3:52 AM 71.1 °F - 69.1 °F 93% 29.76 in 7.0 mi SSW 4.6 mph - N/A   Clear
4:52 AM 72.0 °F - 70.0 °F 93% 29.77 in 8.0 mi NE 3.5 mph - N/A   Mostly Cloudy
5:52 AM 73.0 °F - 61.0 °F 66% 29.74 in 10.0 mi NNW 5.8 mph - N/A   Partly Cloudy
6:52 AM 68.0 °F - 62.1 °F 81% 29.75 in 10.0 mi Calm Calm - N/A   Clear
7:52 AM 70.0 °F - 60.1 °F 71% 29.78 in 10.0 mi SW 4.6 mph - N/A   Clear
8:52 AM 73.0 °F - 60.1 °F 64% 29.79 in 10.0 mi Calm Calm - N/A   Clear
9:52 AM 78.1 °F - 63.0 °F 60% 29.78 in 10.0 mi WSW 4.6 mph - N/A   Clear
10:52 AM 82.0 °F 84.9 °F 68.0 °F 62% 29.78 in 10.0 mi SSE 8.1 mph - N/A   Clear
11:52 AM 84.9 °F 89.4 °F 70.0 °F 61% 29.79 in 10.0 mi South 11.5 mph - N/A   Clear
12:52 PM 86.0 °F 90.1 °F 69.1 °F 57% 29.78 in 10.0 mi South 10.4 mph 19.6 mph N/A   Scattered Clouds
1:52 PM 88.0 °F 92.1 °F 69.1 °F 53% 29.76 in 10.0 mi South 9.2 mph 21.9 mph N/A   Partly Cloudy
2:52 PM 90.0 °F 94.5 °F 69.1 °F 50% 29.74 in 10.0 mi South 12.7 mph - N/A   Clear
3:52 PM 90.0 °F 93.6 °F 68.0 °F 48% 29.70 in 10.0 mi South 8.1 mph - N/A   Clear
4:52 PM 91.9 °F 92.5 °F 62.1 °F 37% 29.69 in 10.0 mi SSW 12.7 mph 19.6 mph N/A   Clear
5:52 PM 90.0 °F 94.5 °F 69.1 °F 50% 29.69 in 10.0 mi South 12.7 mph 20.7 mph N/A   Clear
6:52 PM 87.1 °F 92.0 °F 70.0 °F 57% 29.69 in 10.0 mi South 13.8 mph 23.0 mph N/A   Clear
7:52 PM 82.9 °F 86.5 °F 69.1 °F 63% 29.70 in 10.0 mi South 8.1 mph - N/A   Clear
8:52 PM 79.0 °F - 69.1 °F 72% 29.72 in 9.0 mi South 9.2 mph - N/A   Clear
9:52 PM 73.9 °F - 68.0 °F 82% 29.75 in 10.0 mi Variable 3.5 mph - N/A   Clear
10:52 PM 73.0 °F - 66.9 °F 81% 29.77 in 10.0 mi SSW 3.5 mph - N/A   Clear
11:52 PM 73.0 °F - 69.1 °F 87% 29.75 in 10.0 mi South 5.8 mph - N/A   Clear